Temperature
-11 -11 -11 -10 -10 -10 -9 -9 -8 -8 -8 -7 -6 -5 -5 -5 -4 -3 -2 -1 -1 0 1 2 3 4 5 5 6 7 7 7 7 7 7 8 8 8 7 7 8 8 8
-11 -11 -11 -11 -10 -10 -10 -10 -9 -9 -8 -8 -6 -6 -5 -5 -5 -3 -2 -1 -1 0 1 2 2 2 2 3 5 6 6 6 6 7 7 7 7 7 7 7 7 7 7
-11 -11 -11 -11 -11 -11 -10 -10 -10 -9 -9 -8 -7 -6 -6 -6 -5 -5 -3 -2 -1 -1 -0 0 0 0 1 3 4 5 6 6 6 6 6 6 7 7 7 7 6 7 7
-12 -12 -12 -12 -12 -12 -11 -11 -10 -10 -9 -8 -8 -7 -6 -6 -6 -5 -5 -4 -3 -2 -1 -1 -1 -1 0 1 2 2 3 5 5 5 5 5 6 7 7 7 6 6 7
-13 -13 -13 -13 -13 -12 -12 -11 -11 -11 -10 -9 -9 -8 -7 -6 -6 -6 -5 -5 -5 -4 -4 -3 -2 -1 0 0 1 1 1 2 3 3 3 4 5 6 6 6 6 6 6
-13 -13 -13 -13 -13 -13 -13 -12 -12 -11 -11 -10 -9 -9 -8 -7 -7 -7 -7 -6 -6 -5 -5 -5 -4 -2 -2 -1 -1 -1 0 1 1 1 2 3 3 4 5 5 5 6 5
-13 -14 -14 -14 -14 -13 -14 -13 -13 -12 -11 -11 -10 -10 -9 -8 -8 -8 -8 -7 -7 -6 -6 -6 -5 -4 -4 -3 -2 -2 -2 -1 -0 0 1 1 2 2 3 3 3 4 4
-13 -14 -14 -14 -14 -14 -14 -14 -13 -13 -12 -12 -11 -11 -10 -9 -8 -8 -8 -9 -8 -8 -7 -7 -6 -6 -6 -5 -4 -4 -3 -3 -3 -2 -1 -1 -0 -0 1 2 2 2 2
-14 -14 -14 -14 -14 -15 -15 -14 -14 -13 -13 -12 -12 -11 -10 -10 -9 -9 -8 -9 -9 -8 -8 -8 -8 -8 -8 -7 -6 -5 -5 -5 -5 -4 -4 -4 -3 -2 -1 -0 1 1 1
-14 -14 -14 -15 -15 -15 -15 -15 -14 -14 -13 -13 -12 -12 -11 -10 -10 -9 -9 -9 -9 -9 -9 -8 -8 -8 -9 -9 -7 -7 -7 -6 -6 -6 -5 -5 -5 -4 -3 -3 -2 -2 -1
-14 -14 -14 -14 -15 -15 -15 -15 -14 -14 -14 -13 -13 -13 -12 -11 -11 -10 -9 -9 -9 -10 -10 -9 -9 -9 -9 -10 -9 -9 -9 -9 -8 -8 -7 -7 -7 -6 -5 -5 -4 -4 -4
-14 -14 -14 -14 -15 -15 -15 -14 -14 -14 -14 -14 -14 -14 -13 -12 -11 -11 -10 -10 -10 -10 -10 -10 -9 -10 -11 -11 -10 -10 -10 -10 -9 -9 -8 -8 -8 -8 -7 -6 -6 -5 -5
-14 -14 -14 -14 -14 -15 -14 -14 -14 -14 -14 -15 -15 -14 -14 -13 -12 -11 -11 -11 -11 -10 -10 -10 -11 -10 -11 -11 -11 -10 -10 -10 -10 -10 -10 -9 -9 -9 -9 -8 -8 -7 -7
-14 -14 -14 -14 -14 -14 -14 -14 -14 -15 -15 -15 -14 -15 -14 -14 -13 -12 -12 -12 -11 -11 -11 -11 -12 -12 -12 -12 -12 -12 -11 -11 -11 -11 -11 -11 -11 -10 -10 -9 -9 -9 -8
-14 -13 -13 -14 -14 -14 -14 -14 -14 -14 -15 -14 -14 -15 -14 -14 -13 -12 -12 -12 -12 -11 -12 -12 -12 -12 -12 -12 -13 -13 -13 -13 -12 -12 -12 -12 -11 -11 -11 -10 -10 -10 -9
-13 -13 -13 -14 -15 -15 -15 -14 -14 -15 -15 -15 -15 -14 -14 -14 -13 -13 -13 -13 -13 -13 -13 -14 -14 -13 -13 -14 -14 -14 -14 -14 -14 -14 -13 -13 -13 -12 -12 -12 -11 -11 -11
-13 -13 -14 -15 -15 -15 -15 -15 -14 -15 -15 -15 -16 -15 -15 -14 -14 -14 -14 -15 -15 -15 -14 -14 -14 -14 -15 -15 -15 -15 -15 -15 -15 -15 -15 -14 -14 -14 -14 -13 -13 -12 -12
-12 -12 -13 -14 -14 -14 -14 -14 -15 -15 -16 -15 -15 -15 -15 -15 -14 -14 -15 -15 -15 -15 -16 -16 -16 -16 -16 -16 -16 -16 -16 -16 -16 -16 -16 -16 -16 -15 -15 -15 -14 -14 -14
-12 -12 -13 -14 -14 -14 -14 -14 -15 -15 -15 -15 -15 -15 -15 -15 -15 -15 -15 -15 -16 -16 -16 -16 -16 -16 -16 -16 -16 -16 -16 -16 -16 -16 -16 -16 -16 -16 -16 -16 -15 -15 -15
-12 -13 -13 -13 -13 -13 -14 -14 -14 -15 -15 -15 -16 -16 -15 -15 -15 -15 -15 -15 -15 -16 -16 -16 -16 -16 -16 -16 -16 -16 -16 -16 -16 -17 -16 -16 -16 -16 -16 -16 -16 -15 -15
-12 -12 -12 -12 -13 -13 -13 -14 -14 -14 -15 -15 -16 -16 -15 -15 -15 -15 -15 -15 -15 -15 -15 -15 -15 -15 -16 -16 -16 -16 -16 -16 -16 -16 -16 -16 -16 -16 -16 -16 -15 -15 -15
-11 -12 -11 -12 -13 -14 -13 -14 -14 -14 -14 -15 -15 -16 -16 -15 -15 -15 -15 -15 -15 -15 -15 -15 -15 -15 -15 -15 -16 -16 -16 -16 -16 -16 -16 -16 -16 -16 -16 -16 -15 -15 -15
-11 -12 -11 -12 -13 -14 -13 -14 -14 -14 -14 -15 -15 -15 -16 -16 -15 -15 -15 -15 -15 -15 -15 -15 -15 -15 -15 -15 -15 -15 -15 -15 -15 -15 -15 -15 -15 -15 -15 -15 -15 -15 -15
-10 -11 -12 -12 -13 -13 -13 -13 -13 -14 -14 -15 -15 -15 -16 -16 -15 -15 -15 -15 -15 -15 -15 -15 -15 -15 -15 -15 -15 -15 -15 -14 -14 -14 -14 -14 -14 -15 -15 -15 -15 -15 -15
-10 -11 -12 -13 -13 -12 -12 -12 -13 -13 -14 -15 -15 -15 -15 -15 -15 -15 -15 -15 -14 -14 -14 -14 -15 -15 -14 -14 -14 -14 -14 -14 -14 -14 -14 -14 -14 -14 -14 -14 -14 -14 -14
-9 -10 -11 -12 -12 -12 -12 -12 -12 -13 -13 -14 -15 -15 -15 -15 -15 -15 -14 -14 -14 -14 -14 -14 -14 -14 -14 -14 -14 -13 -13 -14 -14 -14 -14 -15 -15 -15 -15 -14 -14 -14 -14
Wind_Speed
15 14 13 13 13 14 14 15 16 16 17 18 19 19 19 19 17 15 14 13 12 7 1 3 3 1 2 2 4 5 4 4 4 3 2 1 1 2 3 4 6 8 11
14 13 13 14 15 15 15 16 16 17 17 18 18 19 19 18 17 16 13 11 9 3 4 6 7 6 4 3 1 5 6 5 4 3 2 1 1 1 2 3 2 6 9
13 13 13 14 15 15 16 17 17 17 17 18 17 18 19 18 16 18 18 14 8 4 2 3 3 2 3 2 3 3 2 3 3 3 2 1 2 2 3 3 3 3 2
13 13 13 14 15 15 15 16 17 17 17 18 16 16 18 17 13 17 18 17 13 12 10 7 6 1 2 3 3 2 1 2 3 3 3 2 2 2 3 2 4 3 3
13 13 14 14 14 15 15 16 16 16 17 18 15 14 16 16 13 14 14 15 14 13 11 9 9 12 10 5 3 1 1 1 3 4 4 2 1 2 3 2 3 4 4
13 13 15 15 15 14 15 16 15 15 16 17 16 14 15 14 20 21 14 10 11 12 11 12 12 15 16 18 18 15 12 6 2 2 3 3 2 3 2 2 3 4 3
13 13 14 15 15 15 15 15 15 14 15 15 15 15 14 17 25 21 16 9 9 11 11 10 10 12 14 14 19 22 22 22 16 8 6 5 3 3 2 2 3 3 3
12 13 13 14 15 15 14 14 14 12 12 12 12 14 14 17 27 22 12 7 8 9 9 7 8 10 10 12 12 13 15 16 16 13 10 8 7 6 5 4 4 7 7
12 13 13 13 14 14 14 14 14 12 12 11 11 12 14 16 25 25 12 5 5 7 8 7 9 8 15 16 13 13 14 14 20 24 25 22 22 18 11 6 6 4 4
13 14 13 13 13 12 13 12 13 13 13 13 12 11 13 14 21 24 15 5 7 8 8 9 13 16 20 20 13 12 12 10 10 12 16 17 16 18 20 13 7 4 4
13 13 13 13 12 11 11 11 12 12 13 12 12 12 12 15 18 22 20 8 5 6 7 8 9 20 22 22 17 11 11 10 9 10 10 10 11 11 11 10 9 7 5
13 13 13 13 13 11 10 10 11 11 10 10 10 11 12 13 17 20 20 15 8 5 4 5 9 21 22 21 16 16 16 13 8 8 9 10 9 9 8 8 10 11 11
14 14 13 13 12 9 9 9 9 9 9 9 9 10 11 12 14 21 18 18 16 6 1 6 14 18 17 15 18 19 15 9 8 8 9 8 8 7 7 6 7 8 11
14 14 14 13 13 9 9 8 8 8 9 9 7 8 10 11 11 10 8 9 15 7 6 11 15 15 14 13 12 11 9 8 8 8 8 7 7 7 7 7 6 5 5
15 15 14 13 12 10 10 9 9 9 12 11 7 7 8 10 15 16 12 10 12 9 8 7 6 7 8 7 7 7 7 7 8 8 7 7 8 7 7 7 7 6 5
15 14 13 13 12 12 11 12 16 15 19 19 16 13 10 15 20 16 16 17 15 14 9 7 7 7 7 7 6 6 6 7 7 7 6 6 6 5 5 5 6 5 4
15 16 14 13 13 13 13 12 11 12 14 16 15 13 13 16 16 15 14 14 14 12 7 6 6 6 5 5 4 3 3 3 3 4 3 3 4 4 4 4 5 4 4
16 19 15 12 12 12 12 10 7 8 9 9 11 12 11 13 11 11 11 8 7 6 4 4 4 4 4 4 4 4 3 3 2 2 2 2 2 2 2 3 3 2 2
15 13 13 11 11 12 11 10 8 7 7 7 7 8 9 9 8 7 6 3 2 3 3 3 3 2 2 3 3 3 3 3 2 1 1 1 1 1 1 1 3 4 3
13 19 17 12 11 11 10 9 8 7 7 6 6 5 5 4 3 1 1 0 0 2 3 3 4 3 3 2 2 2 3 4 3 2 3 3 2 2 3 3 3 2 2
10 13 18 13 11 11 11 10 9 7 6 5 5 7 9 3 2 2 1 2 2 3 3 4 4 4 4 4 3 3 3 4 4 4 4 4 3 3 4 4 4 4 4
10 11 11 11 12 11 11 10 9 7 6 5 4 6 9 4 2 1 3 3 4 3 3 4 4 4 4 4 4 4 4 5 5 5 5 5 5 5 4 4 5 5 5
10 11 12 12 12 16 15 12 11 9 5 3 3 4 4 3 2 2 3 3 3 4 5 5 4 4 7 8 8 6 5 6 6 6 6 6 6 5 5 5 6 6 6
10 12 13 13 13 13 12 12 11 11 9 6 4 3 3 3 3 3 4 4 3 4 6 6 5 5 8 9 10 11 12 13 13 12 10 8 8 8 7 7 8 9 9
11 12 12 12 12 11 11 11 11 11 10 8 7 5 4 3 4 4 4 4 3 4 5 6 5 7 9 11 12 14 15 17 17 15 11 9 11 11 10 10 10 10 10
12 12 12 11 10 10 10 10 10 10 9 9 7 6 5 4 4 5 5 5 4 4 5 7 8 9 11 13 15 17 18 18 14 9 5 3 4 5 7 8 10 10 11
Wind_Direction
338 335 333 332 332 332 330 327 325 322 322 323 324 322 324 325 321 310 290 268 262 241 146 28 37 257 145 185 142 140 134 128 146 161 164 197 100 141 113 119 139 129 135
335 334 334 333 334 333 330 327 324 322 321 323 326 329 332 338 346 346 337 315 282 234 93 56 30 7 24 8 214 160 142 143 134 148 175 164 117 156 115 132 141 150 146
335 334 333 333 333 331 329 329 327 326 325 327 332 336 337 342 1 5 3 359 348 350 48 100 55 358 316 39 19 28 83 120 126 136 154 188 143 96 88 79 71 65 111
335 333 332 332 331 328 329 330 330 330 329 328 335 341 340 339 3 17 9 8 9 23 20 31 23 69 181 77 57 36 21 124 140 135 145 186 169 100 95 117 115 86 57
334 333 333 331 329 329 331 334 333 334 333 333 333 344 346 341 356 28 16 7 4 18 14 24 27 32 46 88 109 91 100 147 157 151 147 174 149 105 116 115 125 103 57
332 329 330 331 331 331 333 336 335 336 337 337 337 341 345 340 355 23 26 10 2 13 15 18 22 26 38 53 67 70 67 64 85 122 137 127 69 45 60 93 121 119 120
330 327 328 329 331 333 336 337 336 335 337 339 337 339 340 341 355 8 26 19 17 20 19 20 27 29 36 43 50 51 54 56 61 63 75 82 82 33 12 81 81 85 104
330 328 328 330 331 332 337 338 335 334 334 335 334 338 338 346 352 4 29 27 32 27 22 27 35 35 53 58 52 45 44 47 57 63 69 74 79 65 48 56 79 98 80
331 330 329 329 331 333 339 337 336 335 337 337 336 338 341 347 351 355 26 17 19 17 11 22 64 53 61 61 55 49 43 40 49 59 60 59 61 61 56 57 58 101 107
329 329 326 327 329 333 337 331 333 336 339 339 340 344 344 344 350 356 28 18 25 20 11 15 48 66 66 62 57 54 49 47 53 55 55 50 47 48 52 49 43 57 77
322 323 324 324 322 333 334 328 328 331 335 336 342 347 345 343 347 354 8 32 46 45 29 18 39 70 63 57 56 58 65 60 56 56 56 49 43 38 39 44 46 47 54
317 316 317 317 318 322 325 323 325 327 330 329 341 347 344 342 342 348 1 24 49 69 57 36 56 66 63 59 56 54 56 54 49 53 53 47 42 34 28 34 46 62 66
314 310 308 308 308 306 316 316 320 322 324 323 342 345 337 336 337 341 1 17 9 19 340 116 87 72 62 54 53 53 49 47 50 56 56 49 40 37 26 33 44 63 72
308 307 306 304 306 303 306 305 306 308 310 314 334 333 328 327 326 337 360 357 2 9 66 85 77 72 68 58 54 52 48 53 55 55 56 52 42 42 32 23 36 33 68
306 307 307 305 302 295 293 294 297 297 298 313 323 320 319 321 320 344 1 3 14 36 86 73 59 61 59 59 58 54 52 50 54 50 44 44 40 34 31 20 31 33 45
305 306 307 308 306 307 304 297 294 302 314 319 320 318 318 321 328 347 8 1 21 41 54 50 49 49 51 49 49 50 49 51 47 51 52 49 41 24 32 31 40 36 41
303 305 309 312 310 306 303 299 299 305 315 319 321 319 317 323 338 355 16 15 27 41 46 45 38 32 28 25 26 31 34 41 41 44 46 40 33 19 27 33 30 26 25
306 311 316 307 302 301 305 308 301 305 318 319 322 324 318 323 342 13 33 33 27 35 32 35 31 23 19 13 7 5 5 8 26 32 22 12 4 356 3 22 12 0 0
311 313 315 313 315 321 323 318 308 300 302 301 307 317 323 325 340 19 39 57 18 352 354 357 354 349 348 348 349 353 350 333 345 343 316 297 279 285 305 323 318 316 335
310 319 330 331 327 323 318 311 303 296 292 288 288 293 298 307 302 316 360 270 10 307 308 308 308 304 299 287 288 302 309 312 319 299 278 270 266 247 247 252 259 271 271
318 329 337 333 323 318 313 306 302 293 284 282 280 288 292 280 222 215 254 285 282 285 285 285 285 287 291 285 268 258 260 273 269 257 261 265 259 243 246 244 247 255 259
335 329 330 331 327 325 330 330 323 314 300 294 291 302 325 6 59 275 281 284 285 278 270 276 283 275 268 271 273 268 259 257 259 255 249 249 247 241 239 241 245 242 248
333 335 338 339 339 349 355 357 351 344 328 293 290 300 308 321 326 318 311 312 310 307 308 295 282 283 291 283 265 248 253 258 249 237 237 241 239 238 230 233 234 237 239
338 341 341 341 347 0 359 356 354 356 3 3 353 333 308 295 300 312 314 310 307 308 311 304 288 284 293 294 289 279 267 266 263 250 235 231 234 240 235 234 236 235 238
342 341 340 341 351 0 355 355 355 1 8 8 8 2 344 316 307 312 313 307 302 302 304 304 298 301 300 297 295 294 291 289 281 268 250 234 236 230 230 236 241 241 238
343 339 337 340 355 1 355 352 351 352 0 2 1 356 347 330 314 310 312 314 311 302 301 304 303 302 304 300 299 301 305 308 312 317 337 329 275 249 238 234 238 238 238
Height
1512 1506 1500 1494 1487 1479 1472 1466 1460 1454 1448 1442 1436 1429 1421 1413 1404 1396 1392 1388 1386 1386 1386 1386 1388 1391 1393 1397 1401 1404 1407 1411 1415 1420 1425 1429 1432 1437 1440 1444 1448 1450 1453
1511 1504 1498 1492 1484 1477 1470 1463 1457 1451 1445 1440 1434 1427 1419 1410 1401 1391 1386 1383 1383 1384 1383 1383 1382 1386 1391 1394 1398 1401 1402 1406 1411 1416 1421 1426 1430 1433 1437 1441 1444 1448 1451
1510 1503 1495 1489 1482 1475 1468 1461 1455 1449 1443 1436 1431 1425 1418 1410 1402 1391 1384 1379 1379 1381 1383 1382 1382 1384 1387 1390 1393 1395 1398 1402 1406 1411 1416 1422 1426 1429 1432 1437 1441 1446 1449
1507 1500 1493 1486 1479 1473 1467 1460 1453 1447 1441 1435 1429 1424 1418 1411 1403 1396 1390 1383 1379 1376 1376 1377 1378 1381 1383 1385 1389 1393 1396 1398 1402 1405 1412 1417 1421 1425 1429 1434 1438 1442 1446
1504 1498 1490 1484 1478 1471 1465 1458 1452 1446 1440 1434 1429 1423 1418 1412 1406 1399 1395 1391 1386 1381 1380 1375 1376 1378 1381 1382 1386 1389 1391 1394 1397 1400 1405 1411 1415 1418 1424 1428 1433 1437 1441
1503 1496 1489 1482 1476 1469 1463 1456 1450 1445 1439 1434 1429 1424 1419 1414 1409 1404 1397 1394 1391 1386 1383 1380 1378 1379 1379 1379 1381 1384 1386 1391 1393 1395 1400 1406 1410 1413 1419 1423 1426 1431 1437
1502 1495 1488 1482 1475 1468 1462 1456 1450 1444 1438 1434 1429 1425 1420 1415 1411 1406 1401 1396 1392 1389 1386 1385 1383 1382 1381 1380 1382 1384 1385 1388 1390 1392 1396 1402 1407 1410 1414 1417 1419 1425 1431
1500 1494 1488 1481 1475 1468 1462 1456 1450 1444 1439 1434 1430 1426 1421 1416 1412 1408 1404 1400 1397 1394 1392 1389 1388 1387 1389 1388 1387 1387 1385 1386 1388 1392 1395 1398 1401 1403 1409 1412 1415 1421 1427
1499 1493 1487 1481 1475 1468 1463 1456 1451 1446 1440 1436 1432 1427 1422 1418 1414 1410 1405 1402 1400 1398 1395 1394 1393 1392 1391 1389 1387 1386 1387 1389 1391 1393 1395 1397 1400 1403 1405 1407 1411 1417 1422
1499 1493 1487 1481 1475 1469 1464 1458 1453 1448 1443 1438 1433 1429 1424 1419 1415 1412 1409 1405 1402 1401 1399 1397 1395 1393 1391 1389 1388 1389 1392 1394 1395 1396 1396 1398 1400 1403 1405 1408 1410 1414 1417
1498 1493 1487 1481 1475 1469 1464 1459 1454 1448 1444 1439 1434 1430 1425 1420 1416 1414 1411 1407 1405 1403 1401 1401 1400 1398 1396 1395 1395 1396 1396 1397 1398 1398 1398 1401 1402 1404 1406 1408 1411 1413 1416
1497 1491 1486 1480 1474 1468 1463 1458 1453 1448 1444 1439 1435 1430 1425 1421 1417 1415 1413 1410 1407 1405 1404 1404 1404 1402 1400 1400 1400 1399 1399 1400 1401 1401 1400 1402 1404 1406 1408 1408 1410 1412 1416
1494 1489 1483 1478 1472 1467 1462 1456 1452 1448 1444 1439 1435 1430 1426 1422 1418 1415 1412 1411 1409 1407 1406 1405 1404 1404 1403 1403 1402 1402 1403 1404 1404 1402 1402 1404 1407 1409 1410 1411 1411 1413 1417
1492 1485 1480 1474 1469 1465 1460 1455 1450 1446 1442 1439 1435 1431 1427 1423 1419 1417 1414 1411 1408 1406 1406 1405 1404 1404 1404 1404 1405 1406 1406 1406 1405 1404 1405 1406 1408 1410 1411 1412 1412 1414 1417
1489 1483 1476 1471 1466 1460 1456 1452 1448 1444 1442 1439 1435 1432 1428 1423 1421 1419 1416 1413 1410 1406 1406 1406 1406 1407 1407 1407 1408 1408 1408 1407 1406 1406 1407 1407 1408 1410 1411 1412 1412 1414 1415
1486 1480 1474 1468 1462 1457 1452 1447 1444 1442 1439 1436 1433 1431 1428 1425 1423 1420 1417 1416 1414 1411 1409 1409 1409 1409 1409 1410 1410 1409 1409 1408 1407 1408 1408 1408 1409 1410 1411 1411 1412 1413 1414
1485 1478 1471 1466 1460 1454 1448 1443 1438 1435 1433 1431 1429 1428 1427 1425 1423 1421 1418 1416 1415 1413 1412 1411 1411 1411 1411 1411 1411 1410 1410 1409 1408 1408 1409 1409 1410 1411 1411 1410 1411 1412 1412
1484 1477 1470 1463 1457 1451 1446 1441 1437 1432 1428 1425 1425 1424 1424 1424 1423 1422 1419 1417 1416 1415 1414 1413 1413 1413 1412 1411 1411 1410 1410 1410 1409 1409 1409 1409 1410 1411 1410 1410 1410 1410 1410
1483 1475 1468 1462 1457 1451 1445 1439 1434 1430 1426 1423 1422 1421 1421 1421 1422 1422 1420 1419 1418 1417 1416 1415 1414 1413 1412 1411 1410 1410 1409 1409 1408 1408 1408 1408 1408 1408 1408 1408 1408 1408 1409
1483 1475 1469 1463 1455 1449 1442 1437 1432 1428 1425 1422 1420 1419 1420 1420 1421 1421 1421 1420 1420 1419 1418 1417 1415 1414 1412 1411 1410 1409 1408 1408 1407 1406 1406 1406 1405 1405 1405 1405 1405 1406 1406
1482 1475 1469 1461 1454 1447 1441 1436 1431 1427 1424 1421 1419 1418 1419 1420 1420 1420 1420 1420 1420 1419 1418 1417 1415 1413 1411 1410 1408 1407 1407 1406 1405 1405 1404 1403 1402 1402 1403 1403 1402 1403 1403
1483 1475 1468 1461 1453 1447 1443 1437 1431 1426 1423 1421 1419 1418 1418 1418 1419 1419 1419 1419 1419 1419 1417 1416 1414 1412 1410 1408 1406 1405 1404 1403 1402 1402 1401 1400 1400 1400 1399 1399 1400 1400 1400
1484 1476 1470 1463 1455 1450 1442 1437 1431 1427 1424 1421 1420 1418 1417 1417 1418 1418 1418 1418 1418 1417 1416 1415 1413 1411 1408 1406 1404 1403 1401 1400 1399 1398 1397 1396 1396 1396 1396 1395 1395 1395 1396
1486 1478 1471 1465 1458 1452 1445 1440 1434 1430 1426 1423 1421 1419 1418 1417 1417 1417 1417 1417 1417 1416 1415 1413 1411 1409 1407 1405 1404 1402 1400 1398 1396 1395 1393 1392 1392 1392 1391 1391 1391 1391 1391
1489 1481 1474 1467 1461 1456 1450 1444 1438 1433 1429 1426 1423 1421 1419 1418 1417 1416 1416 1416 1415 1414 1413 1412 1410 1408 1406 1404 1402 1400 1398 1395 1393 1391 1389 1387 1385 1385 1384 1384 1384 1384 1384
1491 1484 1477 1470 1465 1459 1454 1448 1442 1437 1433 1430 1427 1424 1421 1419 1418 1416 1416 1415 1414 1412 1411 1410 1409 1407 1405 1404 1402 1399 1396 1392 1390 1387 1385 1382 1379 1378 1378 1378 1378 1377 1377